Simultaneous Nadir Overpasses (SNOs) Predictions

Prediction of SNOs between METOP-A and NOAA-19 Satellite Orbit:

Table of predicted SNOs for the next 14.0 days since TLE Epoch: 7/1/2016
Index Date (METOP-A) Time (METOP-A) Lat,Lon (METOP-A) SZA (METOP-A ) Date (NOAA-19) Time (NOAA-19) Lat,Lon (NOAA-19) SZA (NOAA-19 ) Distance(km) Time Diff (sec)
1 07/11/2016 19:59:30 76.22,-119.28 54.19 07/11/2016 19:58:20 76.23,-119.16 54.20 3.52 70
2 07/11/2016 20:50:12 -76.22, 48.05 125.81 07/11/2016 20:49:15 -76.21, 48.16 125.81 3.14 57
3 07/11/2016 21:40:52 76.20,-144.69 54.18 07/11/2016 21:40:22 76.23,-144.66 54.21 3.63 30
4 07/11/2016 22:31:34 -76.20, 22.64 125.82 07/11/2016 22:31:17 -76.21, 22.66 125.81 1.96 17
5 07/11/2016 23:22:14 76.18,-170.10 54.17 07/11/2016 23:22:23 76.18,-170.00 54.17 2.73 9
6 07/12/2016 00:12:56 -76.18, -2.77 125.83 07/12/2016 00:13:18 -76.17, -2.68 125.84 2.70 22
7 07/12/2016 01:03:36 76.16, 164.49 54.16 07/12/2016 01:04:25 76.18, 164.49 54.18 2.91 49
8 07/12/2016 01:54:18 -76.16, -28.18 125.84 07/12/2016 01:55:20 -76.17, -28.18 125.83 1.09 62




NCC Satellite Simultaneous Nadir Overpasses (SNOs) Prediction Service
